Flight Track Log - Related Links

Times and Time Zones

All times are in EDT time to prevent confusion due to time zone crossing. See the N437FA flight status page for this flight to view local times or setup timezone preferences in your user account.

Time Position Orientation Groundspeed Altitude Reporting Facility
EDT Latitude Longitude Course Direction KTS MPH feet Rate Location/Type
Sun 11:00:12 AM 42.0061 -72.1522 217° Southwest 105 121 4,500  Level Boston Center
Sun 11:00:55 AM 41.9894 -72.1692 217° Southwest 104 120 4,500  Level Boston Center
Sun 11:01:55 AM 41.9667 -72.1917 216° Southwest 104 120 4,500  Level Boston Center
Sun 11:02:50 AM 41.9439 -72.2139 216° Southwest 102 117 4,500  Level Boston Center
Sun 11:04:03 AM 41.9167 -72.2447 220° Southwest 104 120 4,500  Level Boston Center
Sun 11:04:58 AM 41.8958 -72.2644 215° Southwest 103 119 4,500  Level Boston Center
Sun 11:05:58 AM 41.8731 -72.2894 219° Southwest 103 119 4,500  Level Boston Center
Sun 11:06:59 AM 41.8500 -72.3119 216° Southwest 103 119 4,500  Level Boston Center
Sun 11:08:00 AM 41.8294 -72.3342 219° Southwest 102 117 4,500  Level Boston Center
Sun 11:09:13 AM 41.7981 -72.3622 214° Southwest 103 119 4,500  Level Boston Center
Sun 11:10:07 AM 41.7772 -72.3844 219° Southwest 103 119 4,500  Level Boston Center
Sun 11:11:08 AM 41.7544 -72.4094 219° Southwest 105 121 4,500  Level Boston Center
Sun 11:12:15 AM 41.7294 -72.4344 217° Southwest 117 135 4,500  Level Boston Center
Sun 11:13:10 AM 41.7044 -72.4539 210° Southwest 112 129 4,500  Level Boston Center
Sun 11:14:04 AM 41.6836 -72.4733 215° Southwest 107 123 4,500  Level Boston Center
Sun 11:14:59 AM 41.6625 -72.4956 218° Southwest 106 122 4,500  Level Boston Center
Sun 11:16:24 AM 41.6292 -72.5289 217° Southwest 105 121 4,500  Level Boston Center
Sun 11:17:19 AM 41.6106 -72.5511 222° Southwest 104 120 4,500  Level Boston Center
Sun 11:18:26 AM 41.5833 -72.5761 214° Southwest 101 116 4,500  Level Boston Center
Sun 11:21:12 AM 41.5167 -72.6333 213° Southwest 105 121 4,500  Level New York TRACON
Sun 11:23:00 AM 41.5114 -72.6921 263° West  Level FlightAware Approximate
Sun 11:24:12 AM 41.4500 -72.7167 263° West 104 120 4,500  Level New York TRACON
Sun 11:25:12 AM 41.4333 -72.7333 217° Southwest 102 117 4,500  Level New York TRACON
Sun 11:26:12 AM 41.4000 -72.7500 201° Southwest 106 122 4,500  Level New York TRACON
Sun 11:27:12 AM 41.3833 -72.7833 236° Southwest 109 125 4,500  Level New York TRACON
Sun 11:28:12 AM 41.3500 -72.8000 201° Southwest 104 120 4,500  Level New York TRACON
Sun 11:29:12 AM 41.3333 -72.8167 217° Southwest 110 127 4,500  Level New York TRACON
Sun 11:30:12 AM 41.3167 -72.8500 236° Southwest 104 120 4,500  Level New York TRACON
Sun 11:31:12 AM 41.2833 -72.8667 201° Southwest 104 120 4,500  Level New York TRACON
Sun 11:32:12 AM 41.2667 -72.8833 217° Southwest 106 122 4,500  Level New York TRACON
Sun 11:33:12 AM 41.2333 -72.9167 217° Southwest 107 123 4,500  Level New York TRACON
Sun 11:34:12 AM 41.2167 -72.9333 217° Southwest 104 120 4,500  Level New York TRACON
Sun 11:35:12 AM 41.2000 -72.9667 236° Southwest 105 121 4,500  Level New York TRACON
Sun 11:36:12 AM 41.1667 -72.9833 201° Southwest 106 122 4,500  Level New York TRACON
Sun 11:37:12 AM 41.1500 -73.0000 217° Southwest 107 123 4,500  Level New York TRACON
Sun 11:38:12 AM 41.1167 -73.0333 217° Southwest 106 122 4,500  Level New York TRACON
Sun 11:39:12 AM 41.1000 -73.0500 217° Southwest 106 122 4,500  Level New York TRACON
Sun 11:40:12 AM 41.0833 -73.0833 236° Southwest 107 123 4,500  Level New York TRACON
Sun 11:41:12 AM 41.0500 -73.1000 201° Southwest 102 117 4,500  Level New York TRACON
Sun 11:42:12 AM 41.0333 -73.1167 217° Southwest 104 120 4,500  Level New York TRACON
Sun 11:43:06 AM 41.0167 -73.1500 236° Southwest 102 117 4,500  Level New York TRACON
Sun 11:45:00 AM 40.9765 -73.1813 210° Southwest  Level FlightAware Approximate
Sun 11:52:00 AM 40.8298 -73.2985 210° Southwest  Level FlightAware Approximate
Sun 11:53:00 AM 40.8085 -73.3145 210° Southwest  Level FlightAware Approximate
Sun 11:54:00 AM 40.7872 -73.3305 210° Southwest  Level FlightAware Approximate
Sun 11:55:00 AM 40.7673 -73.3494 217° Southwest  Level FlightAware Approximate
Sun 11:56:00 AM 40.7478 -73.3689 217° Southwest  Level FlightAware Approximate
Sun 11:57:00 AM 40.7282 -73.3884 217° Southwest  Level FlightAware Approximate
Sun 11:58:00 AM 40.7167 -73.4000 217° Southwest  Level FlightAware Approximate
Sun 11:59:00 AM 40.7288 -73.4134 217° Southwest  Level Estimated
Sun 12:00:00 PM 40.7288 -73.4134 217° Southwest  Level Estimated
Sun 12:01:00 PM 40.7288 -73.4134 217° Southwest  Level Estimated
Sun 12:02:00 PM 40.7288 -73.4134 217° Southwest  Level Estimated
Sun 12:03:00 PM 40.7288 -73.4134 217° Southwest  Level Estimated
Sun 12:04:00 PM 40.7288 -73.4134 217° Southwest  Level Estimated
Sun 12:05:00 PM 40.7288 -73.4134 217° Southwest  Level Estimated
Sun 12:06:00 PM 40.7288 -73.4134 217° Southwest  Level Estimated
Sun 12:07:00 PM 40.7288 -73.4134 217° Southwest  Level Estimated
Sun 12:08:00 PM 40.7288 -73.4134 217° Southwest  Level Estimated
Sun 12:09:00 PM 40.7288 -73.4134 217° Southwest  Level Estimated

Login

Don't have an account? Register now (free) for customized features, flight alerts, and more!